Find GEMSat

NORAD ID: 39475 Int'l Des: 2013-072 Owner: NROC/CALP Country: US operational
LEORETROGRADE

現在のビュー

3D地球を読み込み中...

GEMSatについて

説明を読み込み中...

次回通過

Passes for default location (London). Set your location on the main map for personalized predictions.

高度履歴

Loading altitude history...

軌道要素

1 39475U 13072P 26146.29416869 .00005046 00000-0 33555-3 0 9994
2 39475 120.4307 40.3327 0173108 243.0393 115.2894 14.97818028111292
Epoch: May 26, 2026 • Age: 8 hours

現在のステータス

高度 603.5 km
速度 7.54 km/s
衛星直下点 -11.43°S, 61.01°W
打ち上げ日 Dec 6, 2013
運用期間 12.4 years
タイプ other

技術仕様

分類 Payload
質量 45.00 kg
乾燥質量 45.00 kg
総質量 45.00 kg
長さ 0.50 m
直径 0.50 m
スパン 0.50 m
形状 Box
製造者 USNPS
バスタイプ NPSCul
フェーズステータス Attached in Orbit
所有者/国 NROC/CALP/US

Most Searched